Home   Weather   Coquitlam   Past weeks
Flag for Canada

Past Weather in Coquitlam, British Columbia, Canada — Yesterday and Last 2 Weeks

Now
68 °F

Mild.


Feels Like: 68 °F
Forecast: 71 / 51 °F
Wind: 2 mph from Southwest

Location: P. Meadows Coastal Station

Current Time: May 19, 2019 at 12:16:28 pm

Latest Report: May 19, 2019 at 11:00 am


Visibility: N/A

Pressure: 29.72 "Hg

Humidity: 47%

Dew Point: 47 °F

Location of CoquitlamLocation

Past Weather in Coquitlam — Graph

°F

Coquitlam Temperature Yesterday

Maximum temperature yesterday: 71 °F (at 5:00 pm)
Minimum temperature yesterday: 51 °F (at 5:00 am)
Average temperature yesterday: 59 °F

High & Low Weather Summary for the Past Weeks

 TemperatureHumidityPressure
High84 °F (May 10, 5:00 pm)100% (May 14, 10:00 pm)30.21 "Hg (May 14, 10:00 pm)
Low46 °F (May 6, 4:00 am)22% (May 9, 6:00 pm)29.52 "Hg (May 16, 3:00 pm)
Average60 °F67%29.89 "Hg
* Reported May 4 12:00 pm — May 19 11:00 am, Coquitlam. Weather by CustomWeather, © 2019

Note: Actual official high and low records may vary slightly from our data, if they occured in-between our weather recording intervals... More about our weather records

Advertising

Coquitlam Weather History for the Previous 24 Hours

Scroll right to see more
 ConditionsComfort  
Time TempWeatherWind HumidityBarometerVisibility
11:00 am
Sun, May 19
68 °FMild.2 mph47%29.72 "HgN/A
10:00 am66 °FMild.2 mph52%29.72 "HgN/A
9:00 am63 °FMild.3 mph61%29.73 "HgN/A
8:00 am60 °FCool.1 mph67%29.73 "HgN/A
7:00 am54 °FCool.2 mph83%29.73 "HgN/A
6:00 am48 °FCool.2 mph94%29.70 "HgN/A
5:00 am50 °FCool.No wind94%29.70 "HgN/A
4:00 am51 °FCool.1 mph92%29.68 "HgN/A
3:00 am52 °FCool.1 mph89%29.68 "HgN/A
2:00 am53 °FCool.No wind82%29.67 "HgN/A
1:00 am55 °FCool.No wind86%29.67 "HgN/A
12:00 am54 °FCool.1 mph84%29.67 "HgN/A
11:00 pm
Sat, May 18
54 °FCool.No wind82%29.65 "HgN/A
10:00 pm58 °FCool.No wind66%29.65 "HgN/A
9:00 pm60 °FRefreshingly cool.5 mph59%29.64 "HgN/A
8:00 pm64 °FMild.3 mph51%29.65 "HgN/A
7:00 pm66 °FMild.8 mph48%29.65 "HgN/A
6:00 pm69 °FMild.8 mph44%29.67 "HgN/A
5:00 pm71 °FMild.7 mph34%29.69 "HgN/A
4:00 pm71 °FMild.6 mph33%29.71 "HgN/A
3:00 pm69 °FMild.3 mph38%29.74 "HgN/A
2:00 pm68 °FMild.3 mph41%29.76 "HgN/A
1:00 pm64 °FMild.3 mph46%29.79 "HgN/A
12:00 pm65 °FMild.3 mph44%29.80 "HgN/A
Weather by CustomWeather, © 2019

See weather overview